Location: Bryzozowice
(50.3667°N, 18.9667°E)
Time: 00:22:49
(UTC+00:00)

CZ-4 R/B - Pass Details

Date: 24 January 2020
Orbit: 534 x 597 km, 97.7° (Epoch: 22 February)

Event Time Altitude Azimuth Distance (km) Brightness Sun altitude
Rises 17:25:40 0° 182° (S) 2,759 5.0 -19.3°
Reaches altitude 10° 17:27:52 10° 189° (S) 1,878 4.2 -19.7°
Maximum altitude 17:31:46 43° 261° (W) 820 2.6 -20.3°
Drops below altitude 10° 17:35:46 10° 334° (NNW) 1,926 4.3 -20.9°
Sets 17:38:03 0° 342° (NNW) 2,839 5.1 -21.3°
